This demonstration page uses our WeatherBlox Daily Observations layout. Learn more.

Left ArrowRight Arrow

39.29038, -76.61219

Hourly Observations for May 1, 2022

Temp ( °F °C ) Dew Point ( °F °C ) Humidity (%) Winds ( mph kmh ) Pressure ( in mb ) Visibility ( mi km ) Precip ( " mm )
12:54 am 00:54 Mostly Cloudy 47 8.3 35 1.7 63 63 W 3 6 30.11 1020 10 16 0.00 0.00
1:54 am 01:54 Mostly Cloudy 51 10.6 35 1.7 54 54 Calm 30.10 1019 10 16 0.00 0.00
2:54 am 02:54 Mostly Cloudy 50 10 37 2.8 61 61 Calm 30.09 1019 10 16 0.00 0.00
3:54 am 03:54 Mostly Cloudy 50 10 37 2.8 61 61 E 3 6 30.08 1019 10 16 0.00 0.00
4:54 am 04:54 Mostly Cloudy 47 8.3 38 3.3 71 71 Calm 30.08 1019 10 16 0.00 0.00
5:54 am 05:54 Mostly Cloudy 47 8.3 38 3.3 71 71 Calm 30.09 1019 10 16 0.00 0.00
6:54 am 06:54 Mostly Cloudy 49 9.4 42 5.6 77 77 Calm 30.11 1020 10 16 0.00 0.00
7:54 am 07:54 Mostly Cloudy 54 12.2 44 6.7 69 69 E 3 6 30.11 1020 10 16 0.00 0.00
8:54 am 08:54 Mostly Cloudy 59 15 45 7.2 60 60 S 3 6 30.11 1020 10 16 0.00 0.00
9:54 am 09:54 Cloudy 61 16.1 46 7.8 58 58 VRB 3 6 30.11 1020 10 16 0.00 0.00
10:54 am 10:54 Cloudy 64 17.8 47 8.3 54 54 S 6 9 30.11 1020 10 16 0.00 0.00
11:54 am 11:54 Cloudy 64 17.8 48 8.9 56 56 SE 7 11 30.10 1019 10 16 0.00 0.00
12:54 pm 12:54 Cloudy 65 18.3 46 7.8 51 51 SE 9 15 30.09 1019 10 16 0.00 0.00
1:54 pm 13:54 Cloudy 65 18.3 43 6.1 45 45 SE 8 13 30.09 1019 10 16 0.00 0.00
2:54 pm 14:54 Cloudy with Rain 59 15 50 10 72 72 SE 5 7 30.10 1019 3 4 0.03 0.76
3:12 pm 15:12 Cloudy with Rain 57 13.9 51 10.6 81 81 ESE 10 17 30.07 1018 3 5 0.08 2.03
3:54 pm 15:54 Cloudy with Light Rain 56 13.3 51 10.6 84 84 Calm 30.07 1018 10 16 0.14 3.56
4:54 pm 16:54 Cloudy with Light Rain 57 13.9 53 11.7 87 87 Calm 30.04 1017 9 14 0.05 1.27
5:54 pm 17:54 Mostly Cloudy 58 14.4 52 11.1 81 81 E 7 11 30.03 1017 10 16 0.00 0.00
6:54 pm 18:54 Mostly Cloudy 57 13.9 52 11.1 83 83 ENE 8 13 30.02 1017 10 16 0.00 0.00
7:54 pm 19:54 Mostly Cloudy 57 13.9 52 11.1 83 83 E 8 13 30.02 1017 10 16 0.00 0.00
8:54 pm 20:54 Mostly Cloudy 56 13.3 51 10.6 84 84 ENE 8 13 30.02 1017 10 16 0.00 0.00
9:54 pm 21:54 Cloudy 56 13.3 51 10.6 84 84 E 6 9 30.02 1017 10 16 0.00 0.00
10:54 pm 22:54 Cloudy 56 13.3 51 10.6 84 84 NE 7 11 30.02 1017 10 16 0.00 0.00
11:54 pm 23:54 Cloudy 56 13.3 50 10 81 81 ENE 7 11 30.00 1016 10 16 0.00 0.00

Powered by AerisWeather